Flag for Australia Weather past 2 weeks in Darwin, Northern Territory, Australia

Now
70 °F

Sunny.


Feels Like: 70 °F
Forecast: 67 / 86 °F
Wind: 7 mph from East

Location: Darwin Airport

Current Time: Jul 25, 2014 at 8:46:01 AM

Latest Report: Jul 25, 2014 at 8:00 AM


Visibility: 10 mi

Pressure: 30.01 "Hg

Humidity: 94%

Dew point: 68 °F

Location of DarwinLocation

Historic Weather in Darwin — Graph

°F

Darwin temperature yesterday

Maximum temperature yesterday: 84 °F (at 12:00 PM)
Minimum temperature yesterday: 64 °F (at 1:30 AM)
Average temperature yesterday: 74 °F

Past Weeks' High & Low Weather Summary

 TemperatureHumidityPressure
High90 °F (Jul 15, 3:00 PM)100% (Jul 17, 7:30 AM)30.04 "Hg (Jul 17, 7:30 AM)
Low64 °F (Jul 20, 6:00 AM)17% (Jul 12, 2:30 PM)29.83 "Hg (Jul 13, 3:00 PM)
Average76 °F64%29.93 "Hg
* Reported Jul 10 7:30 AM — Jul 25 7:30 AM, Darwin, Weather by CustomWeather, © 2014

Note: Actual official high and low records may vary slightly from our data, if they occured in-between our weather recording intervals... More about our weather records

Advertising

Darwin weather history for previous 24 hours

 ConditionsComfort  
Time TempWeatherWind HumidityBarometerVisibility
7:30 AM
Jul 25
68 °FPassing clouds.6 mph94%30.01 "Hg4 mi
7:00 AM70 °FPassing clouds.7 mph94%29.98 "Hg4 mi
6:30 AM68 °FClear.7 mph100%29.98 "Hg10 mi
6:00 AM66 °FClear.6 mph100%29.98 "Hg10 mi
5:30 AM68 °FClear.6 mph94%29.98 "Hg10 mi
5:00 AM68 °FPassing clouds.6 mph94%29.98 "HgN/A
4:30 AM68 °FPassing clouds.6 mph94%29.95 "HgN/A
4:00 AM66 °FClear.7 mph94%29.95 "Hg10 mi
3:30 AM66 °FClear.5 mph100%29.95 "Hg10 mi
3:00 AM68 °FClear.2 mph88%29.95 "Hg10 mi
2:30 AM70 °FClear.5 mph88%29.95 "Hg10 mi
2:00 AM70 °FClear.5 mph88%29.95 "Hg10 mi
1:30 AM68 °FClear.3 mph88%29.95 "Hg10 mi
1:00 AM68 °FClear.6 mph88%29.95 "Hg10 mi
12:30 AM68 °FClear.5 mph88%29.95 "Hg10 mi
12:00 AM70 °FClear.6 mph88%29.95 "Hg10 mi
11:30 PM
Jul 24
70 °FClear.5 mph88%29.95 "Hg10 mi
11:00 PM73 °FClear.6 mph78%29.95 "Hg10 mi
10:30 PM73 °FClear.7 mph78%29.95 "Hg10 mi
10:00 PM73 °FClear.6 mph78%29.95 "Hg10 mi
9:30 PM75 °FClear.8 mph74%29.95 "Hg10 mi
9:00 PM75 °FClear.3 mph74%29.95 "Hg10 mi
8:30 PM75 °FClear.7 mph74%29.92 "Hg10 mi
8:00 PM75 °FClear.8 mph78%29.92 "Hg10 mi
7:30 PM75 °FClear.8 mph83%29.89 "Hg10 mi
7:00 PM77 °FSunny.7 mph74%29.89 "Hg10 mi
6:30 PM79 °FSunny.7 mph65%29.89 "Hg10 mi
6:00 PM79 °FSunny.8 mph65%29.86 "Hg10 mi
5:30 PM79 °FPartly sunny.10 mph65%29.86 "HgN/A
5:00 PM81 °FScattered clouds.10 mph62%29.86 "HgN/A
4:30 PM82 °FScattered clouds.13 mph58%29.86 "HgN/A
4:00 PM84 °FScattered clouds.13 mph55%29.86 "HgN/A
3:30 PM82 °FPassing clouds.13 mph58%29.86 "HgN/A
3:00 PM82 °FPassing clouds.12 mph58%29.86 "HgN/A
2:30 PM84 °FPassing clouds.12 mph55%29.89 "HgN/A
2:00 PM82 °FPassing clouds.12 mph55%29.89 "HgN/A
1:30 PM84 °FPassing clouds.10 mph51%29.92 "HgN/A
1:00 PM82 °FPassing clouds.12 mph51%29.92 "HgN/A
12:30 PM84 °FPassing clouds.13 mph43%29.95 "HgN/A
12:00 PM84 °FPassing clouds.6 mph48%29.95 "HgN/A
11:30 AM81 °FPassing clouds.7 mph51%29.98 "HgN/A
11:00 AM81 °FPassing clouds.7 mph51%29.98 "HgN/A
10:00 AM77 °FSunny.10 mph61%29.98 "Hg10 mi
9:30 AM75 °FPassing clouds.12 mph65%29.98 "HgN/A
9:00 AM73 °FPassing clouds.13 mph69%29.98 "HgN/A
8:30 AM72 °FSunny.8 mph88%29.98 "Hg10 mi
8:00 AM70 °FSunny.7 mph88%29.95 "Hg10 mi
Weather by CustomWeather, © 2014

See weather overviewHow to use our weather pages